• In Belarus
  • List of Countries
  • For 7 days
  • Water Temperature
  • Satellite Maps
  • Weather Map
  • Weather Widgets
  • user-avatar
    Login

    Hourly Weather Jalalabad

    Today, 19 July, Friday

    Time Temperature Precipitation Wind Pressure Humidity
    00:00 +34°C° 0.5 mm 2 mps 705 mmHg 54%
    01:00 +32°C° 0.5 mm 1 mps 705 mmHg 56%
    02:00 +32°C° 0.5 mm 1 mps 704 mmHg 57%
    03:00 +32°C° 0 mm 1 mps 704 mmHg 58%
    04:00 +32°C° 0 mm 1 mps 704 mmHg 59%
    05:00 +31°C° 0 mm 1 mps 704 mmHg 60%
    06:00 +32°C° 0 mm 1 mps 705 mmHg 58%
    07:00 +32°C° 0 mm 1 mps 705 mmHg 56%
    08:00 +33°C° 0 mm 1 mps 705 mmHg 54%
    09:00 +35°C° 0 mm 2 mps 705 mmHg 51%
    10:00 +36°C° 0 mm 2 mps 705 mmHg 47%
    11:00 +37°C° 0 mm 2 mps 705 mmHg 44%
    12:00 +38°C° 0 mm 3 mps 705 mmHg 41%
    13:00 +39°C° 0 mm 3 mps 705 mmHg 37%
    14:00 +40°C° 0 mm 3 mps 704 mmHg 34%
    15:00 +41°C° 0 mm 4 mps 704 mmHg 33%
    16:00 +41°C° 0 mm 4 mps 704 mmHg 32%
    17:00 +41°C° 0 mm 5 mps 704 mmHg 31%
    18:00 +40°C° 0.1 mm 5 mps 704 mmHg 35%
    19:00 +40°C° 0.1 mm 5 mps 704 mmHg 38%
    20:00 +39°C° 0.1 mm 5 mps 705 mmHg 41%
    21:00 +37°C° 0 mm 4 mps 705 mmHg 43%
    22:00 +37°C° 0 mm 3 mps 705 mmHg 45%
    23:00 +36°C° 0 mm 2 mps 705 mmHg 47%

    Tomorrow, 20 July, Saturday

    Time Temperature Precipitation Wind Pressure Humidity
    00:00 +36°C° 0.1 mm 2 mps 705 mmHg 49%
    01:00 +35°C° 0.1 mm 2 mps 705 mmHg 50%
    02:00 +35°C° 0.1 mm 2 mps 705 mmHg 52%
    03:00 +33°C° 0.4 mm 1 mps 705 mmHg 55%
    04:00 +33°C° 0.4 mm 1 mps 705 mmHg 57%
    05:00 +30°C° 0.4 mm 0 mps 705 mmHg 59%
    06:00 +31°C° 0 mm 0 mps 705 mmHg 56%
    07:00 +33°C° 0 mm 1 mps 706 mmHg 54%
    08:00 +34°C° 0 mm 1 mps 706 mmHg 51%
    09:00 +35°C° 0 mm 1 mps 706 mmHg 47%
    10:00 +37°C° 0 mm 2 mps 706 mmHg 44%
    11:00 +38°C° 0 mm 2 mps 706 mmHg 41%
    12:00 +39°C° 0 mm 3 mps 706 mmHg 37%
    13:00 +40°C° 0 mm 3 mps 705 mmHg 34%
    14:00 +42°C° 0 mm 3 mps 705 mmHg 31%
    15:00 +42°C° 0 mm 3 mps 705 mmHg 30%
    16:00 +42°C° 0 mm 3 mps 705 mmHg 29%
    17:00 +43°C° 0 mm 3 mps 704 mmHg 28%
    18:00 +42°C° 0 mm 4 mps 704 mmHg 31%
    19:00 +41°C° 0 mm 4 mps 705 mmHg 33%
    20:00 +40°C° 0 mm 4 mps 705 mmHg 36%
    21:00 +39°C° 0 mm 3 mps 705 mmHg 38%
    22:00 +38°C° 0 mm 2 mps 705 mmHg 40%
    23:00 +37°C° 0 mm 1 mps 706 mmHg 42%

    Day after tomorrow, 21 July, Sunday

    Time Temperature Precipitation Wind Pressure Humidity
    00:00 +36°C° 0 mm 1 mps 705 mmHg 44%
    01:00 +36°C° 0 mm 1 mps 705 mmHg 46%
    02:00 +35°C° 0 mm 1 mps 705 mmHg 48%
    03:00 +35°C° 0 mm 1 mps 705 mmHg 50%
    04:00 +32°C° 0 mm 0 mps 705 mmHg 51%
    05:00 +32°C° 0 mm 0 mps 705 mmHg 53%
    06:00 +33°C° 0 mm 0 mps 705 mmHg 50%
    07:00 +35°C° 0 mm 1 mps 705 mmHg 47%
    08:00 +36°C° 0 mm 1 mps 705 mmHg 44%
    09:00 +37°C° 0 mm 1 mps 705 mmHg 40%
    10:00 +39°C° 0 mm 2 mps 705 mmHg 36%
    11:00 +40°C° 0 mm 2 mps 705 mmHg 32%
    12:00 +41°C° 0 mm 2 mps 705 mmHg 30%
    13:00 +43°C° 0 mm 3 mps 704 mmHg 27%
    14:00 +44°C° 0 mm 3 mps 704 mmHg 25%
    15:00 +44°C° 0 mm 3 mps 704 mmHg 24%
    16:00 +44°C° 0 mm 4 mps 703 mmHg 23%
    17:00 +45°C° 0 mm 4 mps 703 mmHg 23%
    18:00 +44°C° 0 mm 4 mps 703 mmHg 25%
    19:00 +43°C° 0 mm 4 mps 704 mmHg 28%
    20:00 +42°C° 0 mm 3 mps 704 mmHg 31%
    21:00 +40°C° 0 mm 3 mps 704 mmHg 33%
    22:00 +40°C° 0 mm 2 mps 704 mmHg 35%
    23:00 +39°C° 0 mm 2 mps 705 mmHg 38%

    22 July, Monday

    Time Temperature Precipitation Wind Pressure Humidity
    00:00 +37°C° 0 mm 1 mps 704 mmHg 40%
    01:00 +37°C° 0 mm 1 mps 704 mmHg 42%
    02:00 +36°C° 0 mm 1 mps 703 mmHg 44%
    03:00 +36°C° 0 mm 1 mps 703 mmHg 45%
    04:00 +33°C° 0 mm 0 mps 703 mmHg 46%
    05:00 +33°C° 0 mm 0 mps 703 mmHg 48%
    06:00 +33°C° 0 mm 0 mps 704 mmHg 44%
    07:00 +36°C° 0 mm 1 mps 704 mmHg 40%
    08:00 +37°C° 0 mm 1 mps 704 mmHg 36%
    09:00 +39°C° 0 mm 1 mps 704 mmHg 32%
    10:00 +41°C° 0 mm 1 mps 704 mmHg 28%
    11:00 +42°C° 0 mm 2 mps 704 mmHg 23%
    12:00 +43°C° 0 mm 2 mps 704 mmHg 21%
    13:00 +45°C° 0 mm 3 mps 703 mmHg 18%
    14:00 +46°C° 0 mm 3 mps 703 mmHg 15%
    15:00 +46°C° 0 mm 3 mps 703 mmHg 15%
    16:00 +46°C° 0 mm 3 mps 703 mmHg 14%
    17:00 +46°C° 0 mm 3 mps 702 mmHg 14%
    18:00 +45°C° 0 mm 3 mps 703 mmHg 17%
    19:00 +44°C° 0 mm 3 mps 703 mmHg 20%
    20:00 +43°C° 0 mm 3 mps 703 mmHg 23%
    21:00 +41°C° 0 mm 2 mps 703 mmHg 26%
    22:00 +40°C° 0 mm 2 mps 703 mmHg 30%
    23:00 +39°C° 0 mm 1 mps 703 mmHg 33%

    23 July, Tuesday

    Time Temperature Precipitation Wind Pressure Humidity
    00:00 +39°C° 0 mm 1 mps 703 mmHg 34%
    01:00 +37°C° 0 mm 1 mps 703 mmHg 34%
    02:00 +36°C° 0 mm 1 mps 703 mmHg 35%
    03:00 +36°C° 0 mm 1 mps 703 mmHg 34%
    04:00 +35°C° 0 mm 1 mps 703 mmHg 33%
    05:00 +34°C° 0 mm 1 mps 703 mmHg 32%
    06:00 +36°C° 0 mm 1 mps 703 mmHg 29%
    07:00 +37°C° 0 mm 1 mps 703 mmHg 25%
    08:00 +39°C° 0 mm 1 mps 704 mmHg 22%
    09:00 +40°C° 0 mm 1 mps 704 mmHg 20%
    10:00 +41°C° 0 mm 1 mps 704 mmHg 19%
    11:00 +42°C° 0 mm 1 mps 704 mmHg 17%
    12:00 +43°C° 0 mm 1 mps 703 mmHg 15%
    13:00 +44°C° 0 mm 1 mps 703 mmHg 14%
    14:00 +46°C° 0 mm 2 mps 702 mmHg 12%
    15:00 +46°C° 0 mm 2 mps 702 mmHg 11%
    16:00 +47°C° 0 mm 3 mps 702 mmHg 11%
    17:00 +47°C° 0 mm 3 mps 701 mmHg 10%
    18:00 +46°C° 0 mm 3 mps 702 mmHg 13%
    19:00 +45°C° 0 mm 3 mps 702 mmHg 16%
    20:00 +43°C° 0 mm 3 mps 702 mmHg 19%
    21:00 +42°C° 0 mm 2 mps 702 mmHg 23%
    22:00 +41°C° 0 mm 1 mps 702 mmHg 26%
    23:00 +40°C° 0 mm 1 mps 703 mmHg 29%

    24 July, Wednesday

    Time Temperature Precipitation Wind Pressure Humidity
    00:00 +39°C° 0 mm 1 mps 702 mmHg 29%
    01:00 +39°C° 0 mm 1 mps 702 mmHg 29%
    02:00 +37°C° 0 mm 1 mps 702 mmHg 29%
    03:00 +37°C° 0 mm 1 mps 702 mmHg 28%
    04:00 +36°C° 0 mm 1 mps 702 mmHg 26%
    05:00 +35°C° 0 mm 1 mps 702 mmHg 25%
    06:00 +37°C° 0 mm 1 mps 703 mmHg 22%
    07:00 +39°C° 0 mm 1 mps 703 mmHg 19%
    08:00 +40°C° 0 mm 1 mps 703 mmHg 15%
    09:00 +41°C° 0 mm 1 mps 703 mmHg 15%
    10:00 +42°C° 0 mm 1 mps 703 mmHg 14%
    11:00 +43°C° 0 mm 1 mps 703 mmHg 13%
    12:00 +45°C° 0 mm 2 mps 702 mmHg 13%
    13:00 +46°C° 0 mm 2 mps 702 mmHg 12%
    14:00 +47°C° 0 mm 2 mps 702 mmHg 11%
    15:00 +47°C° 0 mm 2 mps 701 mmHg 11%
    16:00 +47°C° 0 mm 3 mps 701 mmHg 10%
    17:00 +48°C° 0 mm 3 mps 701 mmHg 9%
    18:00 +46°C° 0 mm 3 mps 701 mmHg 12%
    19:00 +45°C° 0 mm 3 mps 701 mmHg 16%
    20:00 +43°C° 0 mm 2 mps 701 mmHg 19%
    21:00 +42°C° 0 mm 2 mps 702 mmHg 21%
    22:00 +41°C° 0 mm 2 mps 702 mmHg 23%
    23:00 +40°C° 0 mm 1 mps 703 mmHg 25%
    Show more